Hourly Data Report for June 10, 2021

DRYDEN REGIONAL
ONTARIO
Current Station Operator: NAVCAN

49°49'39.000" N
92°44'39.000" W
412.70 m
6032125
71527
YHD

Download Data

Hourly Data (June 2021)
Hourly Data Report for June 10, 2021
TIME
LST
Temp Definition
°C
Dew Point Definition
°C
Rel Hum Definition
%
Precip. Amount Definition
mm

Wind Dir Definition
10's deg

Wind Spd Definition
km/h
Visibility Definition
km
Stn Press Definition
kPa
Hmdx Definition


Wind Chill Definition


Weather Definition


00:00 19.2 18.1 93 0.0 22 21 16.1 96.45     LegendNANA
01:00 19.1 18.1 94 0.0 22 17 16.1 96.43     LegendNANA
02:00 19.1 18.0 93 0.0 23 15 16.1 96.41     LegendNANA
03:00 18.9 17.9 94 0.0 24 13 16.1 96.41     LegendNANA
04:00 18.8 17.8 94 0.0 26 17 16.1 96.41     LegendNANA
05:00 18.1 17.6 97 0.0 28 13 4.0 96.44     Rain,Fog
06:00 18.2 17.7 97 0.0 28 11 16.1 96.45     LegendNANA
07:00 17.9 16.7 93 0.0 33 9 16.1 96.48     LegendNANA
08:00 18.6 16.4 87 0.0 31 11 16.1 96.48     LegendNANA
09:00 18.5 15.5 82 0.0 1 13 16.1 96.47     LegendNANA
10:00 17.8 14.7 82 0.0 2 11 16.1 96.53     LegendNANA
11:00 17.1 14.5 84 0.0 33 11 16.1 96.54     LegendNANA
12:00 18.0 13.6 75 0.0 35 8 16.1 96.53     LegendNANA
13:00 17.7 13.9 78 0.0 1 13 16.1 96.53     LegendNANA
14:00 18.1 13.5 74 0.0 4 13 16.1 96.55     LegendNANA
15:00 17.7 13.9 78 0.0 3 9 16.1 96.54     LegendNANA
16:00 17.1 14.0 82 0.0 4 15 16.1 96.56     LegendNANA
17:00 16.8 13.8 82 0.0 4 15 16.1 96.55     LegendNANA
18:00 16.1 14.0 87 0.0 5 21 16.1 96.51     LegendNANA
19:00 15.4 14.2 93 0.0 4 13 12.9 96.53     LegendNANA
20:00 15.3 14.4 94 0.0 5 21 16.1 96.51     LegendNANA
21:00 15.0 14.5 97 0.0 6 22 4.8 96.52     Rain,Fog
22:00 14.7 14.2 97 0.0 6 24 16.1 96.53     LegendNANA
23:00 14.3 13.7 96 0.0 7 24 16.1 96.53     LegendNANA

Notes on Data Quality.

Legend

  • E = Estimated
  • M = Missing
  • NA = Not Available*
  • [empty] = Indicates an unobserved value
Date modified: